Location: Dana
(41.8364°N, 106.7042°W)
Time: 14:01:18
(UTC+00:00)

Transit 2A - Pass Details

Date: 18 May 2026
Orbit: 595 x 948 km, 66.7° (Epoch: 8 June)

Event Time Altitude Azimuth Distance (km) Brightness Sun altitude
Rises 20:10:34 0° 157° (SSE) 3,593 9.6 63.7°
Reaches altitude 10° 20:14:26 10° 134° (SE) 2,626 8.9 63.2°
Maximum altitude 20:17:29 14° 104° (ESE) 2,302 8.5 62.9°
Drops below altitude 10° 20:20:28 10° 73° (ENE) 2,557 8.6 62.5°
Sets 20:24:06 0° 50° (NE) 3,435 9.1 62.0°
